Showing default

FLOCK 4Q 30, 58286

Orbit data source: Space-Track

FLOCK 4Q 30, 58286 is a payload satellite owned by Planet (US) in SSO that was launched on Sat, 11 Nov 2023 UTC via an FALCON 9 launch vehicle from the Air Force Western Test Range (AFWTR). Payload-class satellites include a variety of spacecraft equipped with specific instruments for various scientific and technological missions. These include communications satellites like Starlink; space stations such as the ISS; scientific satellites like the Hubble; Earth observation satellites from companies like Planet Labs, Umbra, and HawkEye 360; GPS; miniature CubeSats for education and research; and military/defense satellites.

Loading next visibility...
Identifier
58286, 2023-174AG
Orbit
SSO
Country
Flag of USUS
Related business
Manufacturer
Planet
Mission
Operational Commercial Imaging
Bus & Motor
CUBESAT 3U, Unknown motor
Mass
5.7 kg wet, 5.7 kg dry
Launch date (UTC)
2023-11-11 (2 years ago)
Launch vehicle
FALCON 9
Launch site
Air Force Western Test Range (AFWTR)
Object type
Payload
Rocket body
Debris
Shape & HBR
Box + 2 Pan, 1.0 m
Radar Cross Section
0.072 m², Medium (>0.1 m² and < 1m²)

Expand to show TLE details & history
Last TLE update: 19 hours ago

TLE from 19 hours ago
0 FLOCK 4Q 30
1 58286U 23174AG  26126.23052550  .00038625  00000-0  57755-3 0  9991
2 58286  97.3929 217.1444 0003512 285.8122  74.2745 15.54908459139273
Epoch: 2026-05-06T05:31Z
TLE epoch observation values (Epoch: 2026-05-06T05:31:57.403Z)
Latitude
0.00003°
Longitude
-89.93878°
Altitude
404.912 km
Speed
7.668 km/s
True Right ascension
14h 28m 34s
True Declination
0° 00' 00"
Sunlit
Object was in full shadow at epoch
Visualization orbit readout
Latitude
Unknown
Longitude
Unknown
Altitude
Unknown
Speed
Unknown
Apparent Right ascension
Unknown
Apparent Declination
Unknown
Sunlit
N/A
Visualization observer readout
Local Sidereal Time
08:27:09
Azimuth
Unknown
Elevation
Unknown
Doppler factor
Unknown
Orbital elements
Apogee altitude
401.718 km
Perigee altitude
396.957 km
Semi-major axis
6,777.475 km
Eccentricity
0.00035
Inclination
97.3929°
RAAN
217.1444°
Arg. of periapsis
285.8122°
True anomaly
74.31324°
Mean anomaly
74.2745°
Eccentric anomaly
74.29387°
Mean motion
3.88993 °/min
Orbital period
92.55 mins
BSTAR
0.00057755
Loading maneuver chart data...
Computing Atmospheric mass density...
Loading historical data...
Loading historical data...
Loading historical data...
Loading historical data...
Loading historical data...
Loading historical data...
Loading historical data...

Documentation

Showing up to 5 results
|